Home   Weather   Barnstable   Past weeks

Flag for USA Past Weather in Barnstable, Massachusetts, USA — Yesterday and Last 2 Weeks

Now
38 °F

Fog.


Feels Like: 38 °F
Forecast: 39 / 45 °F
Wind: No wind

Location: Barnstable Municipal-Boardman Airport

Current Time: Jan 22, 2017 at 5:40:21 am

Latest Report: Jan 22, 2017 at 4:56 am


Visibility: 0 mi

Pressure: 29.73 "Hg

Humidity: 100%

Dew Point: 38 °F

Location of BarnstableLocation

Past Weather in Barnstable — Graph

°F

Barnstable Temperature Yesterday

Maximum temperature yesterday: 49 °F (at 2:56 pm)
Minimum temperature yesterday: 39 °F (at 6:16 pm)
Average temperature yesterday: 42 °F

High & Low Weather Summary for the Past Weeks

 TemperatureHumidityPressure
High53 °F (Jan 12, 11:08 am)100% (Jan 10, 7:56 am)30.69 "Hg (Jan 10, 7:56 am)
Low7 °F (Jan 9, 8:56 pm)33% (Jan 13, 7:56 pm)29.72 "Hg (Jan 21, 2:56 pm)
Average35 °F76%30.19 "Hg
* Reported Jan 7 3:56 am — Jan 22 3:56 am, Barnstable, Weather by CustomWeather, © 2017

Note: Actual official high and low records may vary slightly from our data, if they occured in-between our weather recording intervals... More about our weather records

Advertising

Barnstable Weather History for the Previous 24 Hours

Scroll right to see more
 ConditionsComfort  
Time TempWeatherWind HumidityBarometerVisibility
3:56 am
Sun, Jan 22
39 °FFog.No wind100%29.73 "Hg0 mi
3:05 am39 °FFog.3 mph100%29.75 "Hg1 mi
1:56 am39 °FFog.7 mph100%29.75 "Hg0 mi
12:56 am39 °FFog.6 mph100%29.75 "Hg0 mi
11:56 pm
Sat, Jan 21
40 °FFog.6 mph97%29.74 "Hg0 mi
10:56 pm40 °FFog.8 mph97%29.75 "Hg0 mi
10:15 pm40 °FFog.6 mph97%29.76 "Hg0 mi
9:56 pm40 °FFog.6 mph97%29.76 "Hg1 mi
8:56 pm40 °FFog.6 mph97%29.77 "Hg1 mi
7:56 pm40 °FFog.8 mph97%29.77 "Hg1 mi
6:56 pm40 °FFog.9 mph93%29.77 "Hg1 mi
6:16 pm39 °FFog.7 mph93%29.76 "Hg2 mi
5:56 pm40 °FFog.6 mph89%29.76 "Hg2 mi
5:34 pm40 °FFog.5 mph89%29.76 "Hg2 mi
4:56 pm45 °FClear.8 mph82%29.76 "Hg10 mi
3:56 pm45 °FSunny.7 mph80%29.73 "Hg9 mi
2:56 pm49 °FSunny.9 mph74%29.72 "Hg7 mi
1:56 pm45 °FOvercast.8 mph82%29.75 "Hg7 mi
12:56 pm46 °FMore clouds than sun.12 mph83%29.76 "Hg10 mi
12:09 pm45 °FMore clouds than sun.10 mph82%29.77 "Hg10 mi
11:56 am45 °FMostly cloudy.12 mph82%29.79 "Hg9 mi
10:56 am43 °FFog.13 mph89%29.82 "Hg6 mi
10:36 am43 °FFog.10 mph89%29.82 "Hg6 mi
9:56 am43 °FFog.6 mph93%29.84 "Hg6 mi
9:04 am42 °FFog.8 mph92%29.85 "Hg3 mi
8:34 am41 °FFog.10 mph93%29.85 "Hg2 mi
7:56 am41 °FFog.7 mph89%29.85 "Hg3 mi
7:22 am41 °FLow clouds.8 mph82%29.85 "Hg10 mi
6:56 am41 °FOvercast.3 mph82%29.86 "Hg9 mi
5:56 am40 °FOvercast.5 mph83%29.87 "Hg10 mi
Weather by CustomWeather, © 2017

See weather overviewHow to use our weather pages